Hourly Weather Runcorn

Today, 16 May, Sunday

Time Temperature Precipitation Wind Pressure Humidity
00:00 +7°C° 0 mm 2 mps 747 mmHg 95%
01:00 +7°C° 0 mm 2 mps 747 mmHg 95%
02:00 +6°C° 0 mm 2 mps 747 mmHg 95%
03:00 +6°C° 0 mm 2 mps 746 mmHg 96%
04:00 +6°C° 0 mm 2 mps 746 mmHg 95%
05:00 +6°C° 0 mm 2 mps 746 mmHg 95%
06:00 +7°C° 0 mm 2 mps 746 mmHg 94%
07:00 +8°C° 0 mm 2 mps 746 mmHg 88%
08:00 +10°C° 0 mm 2 mps 746 mmHg 82%
09:00 +12°C° 0 mm 3 mps 746 mmHg 76%
10:00 +12°C° 0.2 mm 3 mps 746 mmHg 75%
11:00 +12°C° 0.2 mm 3 mps 746 mmHg 74%
12:00 +12°C° 0.2 mm 3 mps 746 mmHg 73%
13:00 +14°C° 0.2 mm 2 mps 746 mmHg 71%
14:00 +14°C° 0.2 mm 2 mps 746 mmHg 69%
15:00 +15°C° 0.2 mm 1 mps 745 mmHg 67%
16:00 +14°C° 0.3 mm 1 mps 745 mmHg 72%
17:00 +14°C° 0.3 mm 1 mps 745 mmHg 76%
18:00 +14°C° 0.3 mm 1 mps 746 mmHg 81%
19:00 +12°C° 0.3 mm 2 mps 746 mmHg 85%
20:00 +10°C° 0.3 mm 2 mps 746 mmHg 88%
21:00 +9°C° 0.3 mm 2 mps 747 mmHg 92%
22:00 +9°C° 0.1 mm 2 mps 747 mmHg 93%
23:00 +8°C° 0.1 mm 2 mps 748 mmHg 94%

Tomorrow, 17 May, Monday

Time Temperature Precipitation Wind Pressure Humidity
00:00 +8°C° 0.1 mm 2 mps 748 mmHg 95%
01:00 +8°C° 0 mm 1 mps 748 mmHg 95%
02:00 +8°C° 0 mm 1 mps 749 mmHg 95%
03:00 +8°C° 0 mm 1 mps 749 mmHg 95%
04:00 +9°C° 0 mm 1 mps 750 mmHg 95%
05:00 +9°C° 0 mm 1 mps 750 mmHg 94%
06:00 +10°C° 0 mm 1 mps 751 mmHg 93%
07:00 +9°C° 0.1 mm 2 mps 751 mmHg 91%
08:00 +10°C° 0.1 mm 2 mps 752 mmHg 89%
09:00 +11°C° 0.1 mm 3 mps 752 mmHg 86%
10:00 +11°C° 0.4 mm 4 mps 752 mmHg 84%
11:00 +12°C° 0.4 mm 4 mps 753 mmHg 81%
12:00 +12°C° 0.4 mm 5 mps 753 mmHg 78%
13:00 +12°C° 0.2 mm 5 mps 753 mmHg 75%
14:00 +13°C° 0.2 mm 5 mps 754 mmHg 72%
15:00 +13°C° 0.2 mm 5 mps 754 mmHg 68%
16:00 +12°C° 0 mm 5 mps 754 mmHg 69%
17:00 +12°C° 0 mm 4 mps 754 mmHg 69%
18:00 +11°C° 0 mm 4 mps 754 mmHg 70%
19:00 +10°C° 0 mm 3 mps 755 mmHg 75%
20:00 +9°C° 0 mm 3 mps 755 mmHg 80%
21:00 +7°C° 0 mm 2 mps 756 mmHg 86%
22:00 +7°C° 0 mm 2 mps 756 mmHg 87%
23:00 +7°C° 0 mm 2 mps 756 mmHg 88%

Day after tomorrow, 18 May, Tuesday

Time Temperature Precipitation Wind Pressure Humidity
00:00 +7°C° 0 mm 2 mps 756 mmHg 89%
01:00 +6°C° 0 mm 2 mps 756 mmHg 90%
02:00 +6°C° 0 mm 2 mps 756 mmHg 90%
03:00 +5°C° 0 mm 3 mps 757 mmHg 91%
04:00 +7°C° 0 mm 3 mps 757 mmHg 89%
05:00 +8°C° 0 mm 3 mps 757 mmHg 87%
06:00 +8°C° 0 mm 3 mps 757 mmHg 85%
07:00 +9°C° 0 mm 3 mps 758 mmHg 77%
08:00 +11°C° 0 mm 4 mps 758 mmHg 70%
09:00 +12°C° 0 mm 5 mps 758 mmHg 62%
10:00 +12°C° 0 mm 5 mps 758 mmHg 60%
11:00 +13°C° 0 mm 5 mps 758 mmHg 57%
12:00 +13°C° 0 mm 5 mps 759 mmHg 55%
13:00 +13°C° 0.1 mm 5 mps 759 mmHg 55%
14:00 +13°C° 0.1 mm 5 mps 759 mmHg 54%
15:00 +13°C° 0.1 mm 4 mps 759 mmHg 54%
16:00 +13°C° 0 mm 4 mps 759 mmHg 58%
17:00 +12°C° 0 mm 4 mps 759 mmHg 61%
18:00 +12°C° 0 mm 3 mps 759 mmHg 65%
19:00 +11°C° 0 mm 3 mps 760 mmHg 71%
20:00 +9°C° 0 mm 2 mps 760 mmHg 77%
21:00 +8°C° 0 mm 2 mps 760 mmHg 84%
22:00 +7°C° 0 mm 2 mps 760 mmHg 86%
23:00 +7°C° 0 mm 2 mps 760 mmHg 87%

19 May, Wednesday

Time Temperature Precipitation Wind Pressure Humidity
00:00 +7°C° 0 mm 2 mps 760 mmHg 89%
01:00 +7°C° 0 mm 3 mps 761 mmHg 90%
02:00 +7°C° 0 mm 3 mps 761 mmHg 91%
03:00 +5°C° 0 mm 3 mps 761 mmHg 91%
04:00 +7°C° 0 mm 3 mps 761 mmHg 90%
05:00 +8°C° 0 mm 3 mps 761 mmHg 88%
06:00 +8°C° 0 mm 3 mps 761 mmHg 87%
07:00 +8°C° 0.1 mm 4 mps 762 mmHg 79%
08:00 +9°C° 0.1 mm 5 mps 762 mmHg 72%
09:00 +11°C° 0.1 mm 6 mps 762 mmHg 64%
10:00 +11°C° 0 mm 6 mps 762 mmHg 61%
11:00 +13°C° 0 mm 6 mps 762 mmHg 58%
12:00 +13°C° 0 mm 6 mps 762 mmHg 55%
13:00 +13°C° 0 mm 6 mps 762 mmHg 55%
14:00 +14°C° 0 mm 6 mps 762 mmHg 55%
15:00 +14°C° 0 mm 6 mps 763 mmHg 56%
16:00 +13°C° 0 mm 6 mps 763 mmHg 59%
17:00 +13°C° 0 mm 5 mps 763 mmHg 63%
18:00 +12°C° 0 mm 4 mps 763 mmHg 67%
19:00 +11°C° 0 mm 4 mps 763 mmHg 74%
20:00 +10°C° 0 mm 3 mps 764 mmHg 80%
21:00 +8°C° 0 mm 2 mps 764 mmHg 87%
22:00 +8°C° 0 mm 2 mps 764 mmHg 88%
23:00 +8°C° 0 mm 1 mps 764 mmHg 89%

20 May, Thursday

Time Temperature Precipitation Wind Pressure Humidity
00:00 +8°C° 0 mm 1 mps 764 mmHg 91%
01:00 +7°C° 0 mm 1 mps 764 mmHg 91%
02:00 +7°C° 0 mm 1 mps 764 mmHg 91%
03:00 +7°C° 0 mm 1 mps 764 mmHg 91%
04:00 +8°C° 0 mm 1 mps 764 mmHg 89%
05:00 +8°C° 0 mm 1 mps 764 mmHg 88%
06:00 +9°C° 0 mm 1 mps 763 mmHg 86%
07:00 +10°C° 0 mm 1 mps 763 mmHg 80%
08:00 +12°C° 0 mm 2 mps 763 mmHg 75%
09:00 +14°C° 0 mm 2 mps 762 mmHg 70%
10:00 +13°C° 0.2 mm 3 mps 762 mmHg 71%
11:00 +13°C° 0.2 mm 3 mps 761 mmHg 73%
12:00 +13°C° 0.2 mm 4 mps 761 mmHg 74%
13:00 +12°C° 0.2 mm 4 mps 760 mmHg 78%
14:00 +10°C° 0.2 mm 5 mps 759 mmHg 82%
15:00 +9°C° 0.2 mm 6 mps 758 mmHg 86%
16:00 +9°C° 0.1 mm 6 mps 757 mmHg 87%
17:00 +9°C° 0.1 mm 7 mps 756 mmHg 89%
18:00 +8°C° 0.1 mm 7 mps 755 mmHg 91%
19:00 +9°C° 0 mm 7 mps 754 mmHg 90%
20:00 +9°C° 0 mm 7 mps 753 mmHg 90%
21:00 +9°C° 0 mm 7 mps 752 mmHg 90%
22:00 +9°C° 0.1 mm 7 mps 751 mmHg 89%
23:00 +9°C° 0.1 mm 6 mps 750 mmHg 88%

21 May, Friday

Time Temperature Precipitation Wind Pressure Humidity
00:00 +9°C° 0.1 mm 6 mps 750 mmHg 87%
01:00 +9°C° 0 mm 6 mps 749 mmHg 83%
02:00 +9°C° 0 mm 7 mps 748 mmHg 79%
03:00 +9°C° 0 mm 7 mps 747 mmHg 75%
04:00 +9°C° 0.2 mm 7 mps 746 mmHg 78%
05:00 +8°C° 0.2 mm 7 mps 745 mmHg 81%
06:00 +7°C° 0.2 mm 8 mps 744 mmHg 84%
07:00 +7°C° 0.4 mm 8 mps 743 mmHg 87%
08:00 +7°C° 0.4 mm 8 mps 742 mmHg 89%
09:00 +7°C° 0.4 mm 8 mps 742 mmHg 91%
10:00 +7°C° 0.3 mm 8 mps 741 mmHg 91%
11:00 +7°C° 0.3 mm 8 mps 740 mmHg 92%
12:00 +7°C° 0.3 mm 8 mps 739 mmHg 92%
13:00 +9°C° 0.1 mm 7 mps 738 mmHg 91%
14:00 +9°C° 0.1 mm 7 mps 738 mmHg 90%
15:00 +10°C° 0.1 mm 6 mps 737 mmHg 89%
16:00 +9°C° 0.2 mm 6 mps 736 mmHg 91%
17:00 +9°C° 0.2 mm 5 mps 736 mmHg 92%
18:00 +9°C° 0.2 mm 5 mps 735 mmHg 94%
19:00 +9°C° 0.4 mm 5 mps 735 mmHg 94%
20:00 +10°C° 0.4 mm 4 mps 735 mmHg 95%
21:00 +10°C° 0.4 mm 4 mps 735 mmHg 96%
22:00 +10°C° 0.3 mm 4 mps 736 mmHg 96%
23:00 +10°C° 0.3 mm 4 mps 737 mmHg 96%
Show more